Location: *
(51.8167°N, 12.5000°E)
Time: 21:57:08
(UTC+00:00)

CZ-4C R/B - Pass Details

Date: 16 September 2019
Orbit: 654 x 1348 km, 63.4° (Epoch: 15 October)

Event Time Altitude Azimuth Distance (km) Brightness Sun altitude
Rises 23:04:55 0° 313° (NW) 3,712 6.1 -35.7°
Reaches altitude 10° 23:07:20 10° 315° (NW) 2,855 5.4 -35.7°
Enters shadow 23:12:50 61° 327° (NNW) 1,288 3.1 -35.7°
